Meteo Giornale » Osservazioni meteo Germania » Buechel
ore: 20:20 - Osservazioni Meteo Buechel
Lat. 50° 10' N Lon. 7° 4' E Alt. 478 metri s.l.m.
18 °C
Sereno
Temp. 24 Ore
12 °C
21 °C
Nord
5.5 Km/h
Dew point 7 °C
Umidità 48 %
Visibilità 12 Km
Il sole sorge alle ore 06:46
Il sole tramonta alle ore 20:16
| Data e Ora | Cielo e Fenomeni | T °C | DP °C | Um. % | Pres. hPa | Vis. km | Vento km/h | |
|---|---|---|---|---|---|---|---|---|
| Oggi h: 20:20 | Sereno | 18 | 7 | 48 | 1021 | 12 | N 5.5 | |
| Oggi h: 19:20 | Sereno | 20 | 7 | 42 | 1021 | 12 | O/SO 11.1 | |
| Oggi h: 18:20 | Sereno | 20 | 7 | 42 | 1021 | 12 | O/SO 13 | |
| Oggi h: 17:20 | Poco Nuvoloso | 21 | 7 | 40 | 1021 | 10 | O/SO 16.7 | |
| Oggi h: 17:04 | Poco Nuvoloso | 21 | 7 | 40 | 1021 | 10 | O/SO 18.5 | |
| Oggi h: 16:20 | Poco Nuvoloso | 20 | 7 | 42 | 1021 | 10 | O/SO 20.3 | |
| Oggi h: 15:20 | Nuvoloso | 20 | 8 | 45 | 1021 | 10 | O/SO 18.5 | |
| Oggi h: 14:20 | Nuvoloso | 20 | 9 | 49 | 1021 | 10 | O/SO 22.2 | |
| Oggi h: 13:20 | Nuvoloso | 19 | 10 | 55 | 1021 | 10 | O 16.7 | |
| Oggi h: 12:20 | Nuvoloso | 18 | 12 | 67 | 1021 | 10 | O/SO 18.5 | |
| Oggi h: 11:20 | Nuvoloso | 16 | 12 | 77 | 1022 | 10 | O/SO 20.3 | |
| Oggi h: 10:20 | Nuvoloso | 15 | 13 | 87 | 1021 | 10 | O/SO 16.7 | |
| Oggi h: 10:14 | Nuvoloso | 15 | 13 | 87 | 1021 | 10 | O/SO 13 | |
| Oggi h: 09:20 | Molto Nuvoloso | 13 | 12 | 93 | 1021 | 10 | O 14.8 | |
| Oggi h: 08:20 | Molto Nuvoloso | 13 | 12 | 93 | 1021 | 10 | O 18.5 | |
| Oggi h: 07:20 | Molto Nuvoloso | 12 | 11 | 93 | 1020 | 8 | O 14.8 | |
| Oggi h: 06:20 | Molto Nuvoloso | 12 | 11 | 93 | 1020 | 10 | O/SO 13 | |
| Oggi h: 05:20 | Molto Nuvoloso | 12 | 12 | 100 | 1020 | 6 | O/SO 11.1 | |
| Oggi h: 05:00 | Molto Nuvoloso | 12 | 12 | 100 | 1020 | 10 | O/SO 11.1 | |
| Oggi h: 04:20 | Sereno | 12 | 12 | 100 | 1020 | 10 | O/SO 11.1 | |
| Oggi h: 03:20 | Sereno | 13 | 12 | 93 | 1020 | 10 | O 9.3 | |
| Oggi h: 02:20 | Sereno | 12 | 12 | 100 | 1019 | 10 | O 7.4 | |
| Oggi h: 01:20 | Sereno | 13 | 12 | 93 | 1019 | 0 | O/SO 7.4 | |
| Oggi h: 00:20 | Sereno | 13 | 12 | 93 | 1019 | 0 | O 7.4 | |
| Ieri h: 23:20 | Sereno | 14 | 13 | 93 | 1019 | 0 | O 9.3 | |
| Ieri h: 22:20 | Sereno | 14 | 12 | 87 | 1018 | 0 | O 11.1 | |



